Content
SEND FEEDBACK

Daily
Averages
Monthly
Summary
United States of America

HAGANSPORT, TEXAS


Home > North America > United States > Texas
Elevation: 107 meters     Latitude: 33 20N     Longitude: 095 14W

WEATHER
 
SELECT A DAY
Number of Records: 269,475;   Date Range: 7/10/03 - 7/26/14
 
SHARE

PRINT THIS DATA

[ ← Previous Day ]
WEATHER ALMANAC - 31 JANUARY, 2013
[ Next Day → ]
[ °F ]   °C
Weather ElementAverageHighLow
Temperature8.4 °C19 °C (3:35 pm)0 °C (1:55 am)
Dewpoint-4.3 °C-1 °C (9:35 pm)-10 °C (3:15 pm)
Humidity48.1 %87 % (1:55 am)14 % (3:15 pm)
Barometer1021.7 hPa1027.1 hPa (11:15 pm)1019.6 hPa (12:55 am)
Wind Speed8.2 km/h22.2 km/h (8:35 pm)
Wind Gust37 km/h (10:15 pm)
Weather ElementAverage
Visibility16.1 km
Wind DirectionSSE (153 °)

Weather ElementTotal
Precipitation---
Heating Degree Days8.8 (Base 18.3)
Averaged from 69 records on 31 January, 2013
WEATHER CONDITIONS BREAKOUT
WIND DIRECTION BREAKOUT
WEATHER BY HOUR - 31 JANUARY, 2013
[ °F ]   °C
Local TimeTemperatureDewpointHumidityBarometerVisibilityWind DirectionWind SpeedGust SpeedPrecipitationEventsConditions
12:35 AM1 °C-3 °C75 %1020 hPa16.1 kmCalmClear
12:55 AM1 °C-3 °C75 %1019.6 hPa16.1 kmCalmClear
1:15 AM1 °C-3 °C75 %1019.6 hPa16.1 kmCalmClear
1:35 AM1 °C-3 °C75 %1019.6 hPa16.1 kmCalmClear
1:55 AM0 °C-2 °C87 %1019.6 hPa16.1 kmCalmClear
2:15 AM0 °C-2 °C87 %1020 hPa16.1 kmCalmClear
2:35 AM0 °C-3 °C80 %1019.6 hPa16.1 kmCalmClear
2:55 AM0 °C-2 °C87 %1020.3 hPa16.1 kmCalmClear
3:15 AM0 °C-3 °C80 %1020.3 hPa16.1 kmCalmClear
3:35 AM0 °C-3 °C80 %1020.3 hPa16.1 kmCalmClear
3:55 AM0 °C-3 °C80 %1020 hPa16.1 kmCalmClear
4:15 AM0 °C-3 °C80 %1020 hPa16.1 kmCalmClear
4:35 AM1 °C-3 °C75 %1020.3 hPa16.1 kmSSW (200°)5.6 km/hClear
4:55 AM1 °C-3 °C75 %1020.3 hPa16.1 kmCalmClear
5:15 AM1 °C-3 °C75 %1020.3 hPa16.1 kmCalmClear
5:35 AM1 °C-3 °C75 %1020.7 hPa16.1 kmCalmClear
5:55 AM1 °C-3 °C75 %1020.7 hPa16.1 kmCalmClear
6:15 AM1 °C-3 °C75 %1020.7 hPa16.1 kmSouth (190°)5.6 km/hClear
6:35 AM1 °C-3 °C75 %1021 hPa16.1 kmCalmClear
6:55 AM1 °C-3 °C75 %1020.7 hPa16.1 kmSSW (200°)5.6 km/hClear
7:15 AM0 °C-3 °C80 %1021 hPa16.1 kmCalmClear
7:35 AM1 °C-3 °C75 %1021.3 hPa16.1 kmCalmClear
7:55 AM2 °C-3 °C70 %1021.3 hPa16.1 kmCalmClear
8:15 AM3 °C-3 °C65 %1021.7 hPa16.1 kmCalmClear
8:35 AM4 °C-2 °C65 %1022 hPa16.1 kmCalmClear
8:55 AM6 °C-2 °C57 %1022 hPa16.1 kmSW (230°)5.6 km/hClear
9:15 AM7 °C-3 °C49 %1021.7 hPa16.1 kmSW (230°)7.4 km/hClear
9:35 AM8 °C-2 °C50 %1022.4 hPa16.1 kmSW (220°)5.6 km/hClear
9:55 AM10 °C-3 °C40 %1022.4 hPa16.1 kmSW (230°)9.3 km/hClear
10:15 AM10 °C-2 °C43 %1022.4 hPa16.1 kmSouth (170°)9.3 km/hClear
10:35 AM11 °C-3 °C38 %1022.4 hPa16.1 kmSSW (210°)11.1 km/hClear
10:55 AM11 °C-3 °C38 %1022.4 hPa16.1 kmSouth (190°)11.1 km/hClear
11:15 AM12 °C-3 °C35 %1022.7 hPa16.1 kmSSW (200°)9.3 km/hClear
11:35 AM13 °C-3 °C33 %1022.7 hPa16.1 kmSSW (200°)9.3 km/hClear
11:55 AM14 °C-4 °C29 %1022.4 hPa16.1 kmSSW (200°)11.1 km/hClear
12:15 PM15 °C-5 °C25 %1022.4 hPa16.1 kmSSW (210°)14.8 km/h25.9 km/hClear
12:35 PM15 °C-5 °C25 %1021.7 hPa16.1 kmSSW (200°)16.7 km/hClear
12:55 PM16 °C-6 °C22 %1021.7 hPa16.1 kmSW (220°)9.3 km/h27.8 km/hClear
1:15 PM16 °C-6 °C22 %1021.3 hPa16.1 kmSW (220°)13 km/hClear
1:35 PM17 °C-8 °C18 %1020.7 hPa11.3 kmSSW (210°)20.4 km/h27.8 km/hClear
1:55 PM17 °C-8 °C18 %1020.3 hPa16.1 kmSSW (200°)20.4 km/h27.8 km/hClear
2:15 PM17 °C-9 °C16 %1020.3 hPa16.1 kmSW (220°)16.7 km/h27.8 km/hClear
2:35 PM18 °C-9 °C15 %1020.3 hPa16.1 kmSW (220°)16.7 km/h29.6 km/hClear
3:15 PM18 °C-10 °C14 %1019.6 hPa16.1 kmSW (220°)14.8 km/h27.8 km/hClear
3:35 PM19 °C-9 °C14 %1019.6 hPa16.1 kmSSW (210°)13 km/h27.8 km/hClear
3:55 PM18 °C-9 °C15 %1019.6 hPa16.1 kmSW (220°)18.5 km/h25.9 km/hClear
4:15 PM18 °C-10 °C14 %1019.6 hPa16.1 kmSSW (210°)13 km/h29.6 km/hClear
4:35 PM18 °C-10 °C14 %1019.6 hPa16.1 kmSW (220°)13 km/h25.9 km/hClear
4:55 PM18 °C-8 °C16 %1019.6 hPa16.1 kmSSW (210°)18.5 km/h27.8 km/hClear
5:15 PM17 °C-8 °C18 %1019.6 hPa16.1 kmSSW (200°)7.4 km/hClear
5:35 PM16 °C-7 °C20 %1020.3 hPa16.1 kmSSW (210°)9.3 km/hClear
5:55 PM16 °C-7 °C20 %1020.7 hPa16.1 kmSSW (210°)7.4 km/hClear
6:15 PM15 °C-6 °C23 %1021 hPa16.1 kmSSW (210°)5.6 km/hClear
6:35 PM15 °C-6 °C23 %1021.3 hPa16.1 kmSSW (200°)5.6 km/hClear
6:55 PM13 °C-6 °C26 %1021.7 hPa16.1 kmCalmClear
7:15 PM12 °C-6 °C28 %1022 hPa16.1 kmCalmClear
7:35 PM10 °C-5 °C35 %1022.4 hPa16.1 kmCalmClear
7:55 PM11 °C-5 °C33 %1022.4 hPa16.1 kmSW (220°)7.4 km/hClear
8:15 PM13 °C-5 °C29 %1022.7 hPa16.1 kmSW (220°)11.1 km/hClear
8:35 PM11 °C-3 °C38 %1024 hPa16.1 kmNorth (350°)22.2 km/h35.2 km/hClear
8:55 PM10 °C-2 °C43 %1024.7 hPa16.1 kmNNW (340°)14.8 km/h25.9 km/hClear
9:15 PM10 °C-2 °C43 %1025.1 hPa16.1 kmNorth (350°)18.5 km/hClear
9:35 PM8 °C-1 °C53 %1025.4 hPa16.1 kmNNW (340°)14.8 km/hClear
9:55 PM8 °C-2 °C50 %1025.7 hPa16.1 kmNNW (340°)18.5 km/h27.8 km/hClear
10:15 PM7 °C-2 °C53 %1026.1 hPa16.1 kmNNW (340°)22.2 km/h37 km/hClear
10:35 PM7 °C-3 °C49 %1026.1 hPa16.1 kmNNW (340°)22.2 km/h35.2 km/hClear
11:15 PM6 °C-3 °C53 %1027.1 hPa16.1 kmNNW (340°)20.4 km/h31.5 km/hClear
11:35 PM6 °C-3 °C53 %1027.1 hPa16.1 kmNNW (340°)14.8 km/h27.8 km/hClear
11:55 PM5 °C-4 °C53 %1026.8 hPa16.1 kmNorth (350°)16.7 km/hClear
Hourly data recorded from KLBR, located 0 kilometers away from Hagansport, Texas







STORIES FROM OUR PARTNERS